Location: Plainartige
(45.6866°N, 1.7993°E)
Time: 04:08:05
(UTC+00:00)

Oscar 19 - Pass Details

Date: 03 July 2022
Orbit: 773 x 790 km, 98.8° (Epoch: 14 August)

Event Time Altitude Azimuth Distance (km) Brightness Sun altitude
Rises 02:40:01 0° 23° (NNE) 3,261 15.6 -12.0°
Reaches altitude 10° 02:42:37 10° 34° (NE) 2,328 14.7 -11.7°
Maximum altitude 02:47:07 30° 96° (E) 1,357 12.3 -11.2°
Drops below altitude 10° 02:51:35 10° 157° (SSE) 2,314 12.8 -10.7°
Sets 02:54:08 0° 168° (SSE) 3,238 13.5 -10.4°
